Flag for U.S.A. Weather past 2 weeks in Sierra Vista, Arizona, U.S.A.

Now
64 °F

Scattered clouds.


Feels Like: 64 °F
Forecast: 47 / 62 °F
Wind: 26 mph from Southwest

Location: Fort Huachuca

Current Time: Feb 28, 2015 at 4:53:27 PM

Latest Report: Feb 28, 2015 at 3:56 PM


Visibility: 10 mi

Pressure: 29.82 "Hg

Humidity: 38%

Dew point: 38 °F

Location of Sierra VistaLocation

Historic Weather in Sierra Vista — Graph

°F

Sierra Vista temperature yesterday

Maximum temperature yesterday: 66 °F (at 12:55 PM)
Minimum temperature yesterday: 43 °F (at 5:55 AM)
Average temperature yesterday: 55 °F

Past Weeks' High & Low Weather Summary

 TemperatureHumidityPressure
High79 °F (Feb 19, 12:55 PM)93% (Feb 16, 6:56 AM)30.17 "Hg (Feb 16, 6:56 AM)
Low36 °F (Feb 25, 6:55 AM)7% (Feb 18, 1:55 PM)29.66 "Hg (Feb 27, 3:55 PM)
Average56 °F43%29.95 "Hg
* Reported Feb 13 3:55 PM — Feb 28 3:56 PM, Sierra Vista, Weather by CustomWeather, © 2015

Note: Actual official high and low records may vary slightly from our data, if they occured in-between our weather recording intervals... More about our weather records

Advertising

Sierra Vista weather history for previous 24 hours

 ConditionsComfort  
Time TempWeatherWind HumidityBarometerVisibility
3:56 PM
Sat, Feb 28
64 °FScattered clouds.26 mph38%29.82 "Hg10 mi
2:56 PM63 °FPartly sunny.23 mph40%29.81 "Hg10 mi
1:56 PM66 °FSunny.25 mph34%29.80 "Hg10 mi
12:56 PM65 °FSunny.25 mph37%29.80 "Hg10 mi
11:56 AM63 °FSunny.30 mph40%29.82 "Hg10 mi
10:56 AM60 °FSunny.33 mph44%29.80 "Hg10 mi
9:56 AM58 °FPartly sunny.7 mph50%29.83 "Hg10 mi
8:56 AM53 °FMostly cloudy.No wind56%29.84 "Hg10 mi
7:56 AM52 °FSunny.14 mph59%29.81 "Hg10 mi
6:56 AM49 °FSunny.8 mph66%29.78 "Hg10 mi
5:56 AM49 °FPassing clouds.9 mph61%29.77 "Hg10 mi
4:56 AM48 °FClear.3 mph66%29.75 "Hg10 mi
3:56 AM50 °FClear.3 mph59%29.74 "Hg10 mi
2:56 AM50 °FClear.8 mph57%29.74 "Hg10 mi
1:56 AM52 °FClear.10 mph50%29.72 "Hg10 mi
12:56 AM52 °FClear.14 mph53%29.72 "Hg10 mi
11:56 PM
Fri, Feb 27
53 °FClear.10 mph51%29.72 "Hg10 mi
10:55 PM54 °FPassing clouds.12 mph47%29.71 "Hg10 mi
9:55 PM55 °FPassing clouds.22 mph47%29.68 "Hg10 mi
8:55 PM55 °FPassing clouds.8 mph47%29.70 "Hg10 mi
7:55 PM57 °FPassing clouds.21 mph44%29.70 "Hg10 mi
6:55 PM57 °FPassing clouds.17 mph36%29.70 "Hg10 mi
5:55 PM61 °FScattered clouds.20 mph29%29.69 "Hg10 mi
4:55 PM64 °FPassing clouds.15 mph24%29.67 "Hg10 mi
Weather by CustomWeather, © 2015

See weather overviewHow to use our weather pages